Погода в Приаргунске

Погода в Приаргунске : погода сейчас, прогноз погоды и архив. Всё, что Вы хотите узнать о погоде в Приаргунске!

Хотите узнать прогноз погоды в Приаргунске? Тогда Вам сюда: Погода в Приаргунске

Поиск расширенной информации на нашем сайте:

Другие новости

Новости СМИ2

Главная страница сайта

Новости сайта

03.07.2017

Напоминаем, что на нашем специализированном сайте Метеоцентр.Азия вы можете получить высокодетализированные автоматические прогнозы погоды по пунктам России, СНГ и мира в авиационном формате (включающие направление и скорость ветра, видимость, явления погоды, количество и форму облачности, нижнюю и верхнюю границу облачности).

Рекомендуем: матрасы Поролоновые Спб

Погода в Приаргунске - сегодня

Время (UTC), дата Ветер
(°,м/с) 
Видим.   Явления Облачность Т
(°С)
Тd
(°С)
f(%) Тe
(°С)
Pmin
(гПа)
dP
(гПа)
Po
(мм)
O2
(г/м3)
Тmin Tmax R s Состояние
почвы
18 15.04.18 020 (С) 20000 м    3/3 2000 м средняя 
[Ac trans]
-3.9 -9.7 64 -5  1008.9  -1.5  709  291           
21 15.04.18 020 (С) 20000 м    3/3 2000 м средняя 
[Ac trans]
-7.9 -12.5 69 -8  1008.1  -1.7  707  295           
00 16.04.18 100 (В) 20000 м    8/3 2000 м средняя, верхняя 
[Ac trans|Ci fib]
+3.5 -8.1 42 +3  1005.1  -0.2  707  282  -8        сухая 
03 16.04.18 160 (Ю) 20000 м    9/5 2000 м средняя, верхняя 
[Ac lent|Ci fib]
+12.5 -9.4 21 +12  1001.5  -1.5  706  273           
06 16.04.18 190 (Ю) 20000 м    10/4 2000 м средняя, верхняя 
[Ac lent|Cs]
+17.7 -10.8 13 +18  998.7  -1.6  705  268           
09 16.04.18 180 (Ю) 20000 м    10/10 2000 м 
[As trans]
+17.7 -10.5 14 +19  997.8  -0.9  704  267           
15 16.04.18 350 (С) 20000 м    6/6 2000 м средняя 
[Ac trans]
+8.9 -6.9 32 +8  1001.9  706  276           
00 17.04.18 020 (С) 10-12{19}  20000 м    3/3 2000 м средняя 
[Ac lent]
+8.5 -6.6 34 +6  1007.2  2.2  710  278  +6.5        сухая 
03 17.04.18 360 (С) 8-11{13}  20000 м    ясно 
+12.7 -10.4 19 +11  1007.6  1.1  710  274           
06 17.04.18 360 (С) 3{12}  20000 м    1/0 верхняя 
[Ci fib]
+14.4 -12.5 14 +15  1006.6  -0.6  710  273           
09 17.04.18 340 (С) 20000 м    ясно 
+15.1 -15.4 11 +15  1005.6  -0.8  709  272           
15 17.04.18 030 (СВ) 20000 м    ясно 
+1.1 -14.2 31 +2  1010.3  0.6  710  286           
18 17.04.18 360 (С) 20000 м    ясно 
-2.5 -13.7 42 -4  1010.5  -0.6  710  290           
21 17.04.18 010 (С) 20000 м    9/3 2000 м средняя, верхняя 
[Ac trans|Cc]
-3.6 -13.9 45 -3  1010.8  0.1  710  291           
00 18.04.18 060 (СВ) 20000 м    9/9 2000 м средняя 
[Ac trans]
+2.8 -10.5 37 +4  1009.3  710  284  -5.3        сухая 
03 18.04.18 100 (В) 20000 м    10/4 600 м кучево-дожд., средняя, верхняя 
[Cb cap|Ac trans|Cs]
+10.3 -9.4 24 +10  1006.5  -1  709  276           
06 18.04.18 350 (С) 20000 м    10/6 600 м кучево-дожд., средняя 
[Cb cap|As op]
+13.2 -8.6 21 +14  1005.2  -0.6  709  273           
09 18.04.18 300 (СЗ) 20000 м    10/8 600 м кучево-дожд., средняя, верхняя 
[Cb cap|Ac trans|Cs]
+12.8 -5.5 27 +13  1005  -0.3  709  273           
15 18.04.18 170 (Ю) 20000 м    ясно 
+3.4 -3.7 60 +3  1009.2  1.3  710  283           
18 18.04.18 050 (СВ) 20000 м    ясно 
-0 -4.9 70 +1  1011.5  1.3  711  287           
21 18.04.18 200 (Ю) 20000 м    4/4 2000 м средняя 
[Ac lent]
-1.3 -5 76 -2  1012.8  712  289           
00 19.04.18 170 (Ю) 20000 м    3/3 2000 м средняя 
[Ac lent]
+8.1 -2.1 49 +9  1012  1.3  713  279  -3.9        сухая 
03 19.04.18 200 (Ю) 20000 м    6/3 600 м средняя, верхняя 
[Sc|Ac trans|Ci sp]
+15.9 -12.1 13 +17  1009  -1.2  712  272           
06 19.04.18 220 (ЮЗ) 20000 м    10/4 600 м средняя 
[Sc|As trans]
+17 -3.8 24 +17  1007.3  -1.3  711  270           
09 19.04.18 200 (Ю) 6{15}  20000 м    10/5 600 м средняя 
[Sc|As trans]
+16.5 -3.6 25 +16  1005.3  -2  709  270           
Время (UTC), дата Ветер
(°,м/с) 
Видим.   Явления Облачность Т
(°С)
Тd
(°С)
f(%) Тe
(°С)
Pmin
(гПа)
dP
(гПа)
Po
(мм)
O2
(г/м3)
Тmin Tmax R s Состояние
почвы

Для получения пояснительной информации подведите курсор к названию столбца.

ПОГОДА в Приаргунске - архив

Всё, что Вы хотите узнать о погоде в Приаргунске - удобно и подробно!

Выберите нужную дату (начиная с 1 января 2015* года) и нажмите кнопку "Найти".
Будут отображены архивные сводки погоды по пункту Приаргунск, начиная с указанной даты.


Отображать данные в формате CSV (для использования в таблицах Excel)


Внимание! Наш архив погоды предназначен исключительно для личного некоммерческого использования в познавательных целях. Если Вам необходимы официальные справки о состоянии погоды (для производственных, юридических, коммерческих и т.п. целей), обращайтесь в органы Росгидромета.

*Примечание: данная дата относится к архиву по метеостанциям СССР (Россия, СНГ, Балтия).
Архив по метеостанциям Зарубежной Европы и Азии (кроме Китая) хранится 10 дней, по другим регионам земного шара (Китай, Африка, Америка, Австралия, Океания) - 1 день.

Приаргунск - район местоположения метеостанции


Название, широта, долгота, высота метеостанции:
Приаргунск 50.4°ш. 119.1°д. 521 м над ур. моря [Российская Федерация]

Дополнительная информация

В oтличие oт бoльшинства пoгoдных сайтoв мы публикуем пoдрoбную метеoинфoрмацию в детальнoм прoфессиoнальнoм фoрмате.

Характеристики температуры и влажнoсти вoздуха измеряются на высoте 2 м в тени вдали oт зданий и деревьев.
Скoрoсть ветра измеряется на высoте 10 м (на урoвне рoста челoвека скoрoсть ветра ниже в 1.5-2 раза). Если метеoстанция нахoдится в гoрoде или в лесу, тo скoрoсть ветра занижена на 2-4 м/с пo сравнению с oткрытым местoм. Скoрoсть ветра над акватoриями крупных рек и oзёр, а также на вершинах хoлмoв на 2-5 м/с выше, чем в oбычных услoвиях.
Атмoсфернoе давление в разных тoчках местнoсти мoжет значительнo oтличаться oт давления на метеoстанции, в зависимoсти oт услoвий рельефа (при пoдъёме на 10 м давление пoнижается примернo на 1 мм рт.ст.).